Weather in Havza

Turkey     40°58′02″N   35°40′07″E
temp.,
°C
wind,
m/s
gust,
m/s
humid.,
%
clouds,
%
prec.,
mm/h
press.,
hPa
HPBL,
m
20 april, tue
tue2000:00+15se1461100 0.0 100775
03:00+14n1258100 0.0 100421
06:00+9nne3391100 0.0 1007112
09:00+12ne228161 0.0 1009323
12:00+18s165519 0.0 10081272
15:00+20wnw374141 0.3 10081858
18:00+10ene797810 0.1 1012521
21:00+8ene71283100 0.1 1015663
21 april, wed
wed2100:00+8ene487887 0.0 1016658
03:00+7ne2682100 0.0 1016440
06:00+5nne229318 0.0 101840
09:00+9ne237694 0.0 1019674
12:00+10nne327189 0.0 1018761
15:00+12ne436653 0.1 1018897
18:00+9ne5678100 0.0 1019636
21:00+7ne3683100 0.0 1020547
22 april, thu
thu2200:00+7nne238596 0.0 1020342
03:00+7ne117988 0.0 1020408
06:00+5nnw119050 0.0 102120
09:00+9n237440 0.0 1021588
12:00+14n3355100 0.0 10201141
15:00+14ne435511 0.8 10201247
18:00+11ene567450 0.9 1021803
21:00+7ene339156 0.9 102478
23 april, fri
fri2300:00+6ene12935 0.0 102416
03:00+5se11870 0.0 102410
06:00+5s22840 0.0 102414
09:00+11ssw23625 0.0 1022451
12:00+16ssw44455 0.0 10201136
15:00+18ssw4433100 0.0 10191615
18:00+17se344318 0.0 1017135
21:00+11ese2268100 0.0 101920
24 april, sat
sat2400:00+11s22488 0.0 101714
03:00+10ssw325583 0.0 101720
06:00+9nw11595 0.0 101810
09:00+14n2350100 0.0 1019462
12:00+17ne4346100 0.0 10181173
15:00+14ene6657100 0.0 1018826
18:00+12ne4764100 0.0 1018559
21:00+9ne3978100 0.0 1019449